WESTFORD NEEDLES, 2381

Orbit data source: Space-Track

WESTFORD NEEDLES, 2381 is space debris in LEO originally from a launch on Thu, 09 May 1963 UTC launched from the Air Force Western Test Range (AFWTR). Debris objects in space refer to the collection of defunct objects orbiting the Earth. Examples of debris include non-operational satellites, rocket bodies, and fragments generated from explosions, collisions, or faulty payload assembly.

Loading next visibility...
Identifier
2381, 1963-014AB
Orbit
LEO
Country
Flag of USUS
Related business
Manufacturer
Unknown
Mission
Spacecraft
Bus & Motor
Unknown
Mass
Unknown
Launch date (UTC)
1963-05-09 (62 years ago)
Launch vehicle
Unknown
Launch site
Air Force Western Test Range (AFWTR)
Object type
Payload
Rocket body
Debris
Shape & HBR
Unknown shape, 0.3 m
Radar Cross Section
Medium (>0.1 m² and <1 m²)

Expand to show TLE details & history
Last TLE update: 4 days ago

TLE from 4 days ago
0 WESTFORD NEEDLES
1 02381U 63014AB  25290.51440113  .00000131  00000-0  56630-1 0  9991
2 02381  87.2855 121.1099 0242362 133.5878 228.5371  8.67467137370229
Epoch: 2025-10-17T12:20Z
TLE epoch observation values (Epoch: 2025-10-17T12:20:44.257Z)
Latitude
0.00006°
Longitude
-90.33318°
Altitude
3,793.229 km
Speed
6.209 km/s
True Right ascension
08h 04m 26s
True Declination
0° 00' 00"
Sunlit
Object was in daylight at epoch
Visualization orbit readout
Latitude
Unknown
Longitude
Unknown
Altitude
Unknown
Speed
Unknown
Apparent Right ascension
Unknown
Apparent Declination
Unknown
Sunlit
N/A
Visualization observer readout
Local Sidereal Time
13:22:42
Azimuth
Unknown
Elevation
Unknown
Doppler factor
Unknown
Orbital elements
Apogee altitude
3,867.491 km
Perigee altitude
3,382.612 km
Semi-major axis
10,003.188 km
Eccentricity
0.02424
Inclination
87.2855°
RAAN
121.1099°
Arg. of periapsis
133.5878°
True anomaly
226.49725°
Mean anomaly
228.5371°
Eccentric anomaly
227.51308°
Mean motion
2.16938 °/min
Orbital period
165.95 mins
BSTAR
0.05663
Loading maneuver chart data...
Computing Atmospheric mass density...

Documentation

Showing up to 5 results
|